Location: Audinghen
(50.8518°N, 1.6129°E)
Time: 19:58:48
(UTC+00:00)

Cosmos 1607 - Pass Details

Date: 07 August 2020
Orbit: 911 x 991 km, 65.0° (Epoch: 21 September)

Event Time Altitude Azimuth Distance (km) Brightness Sun altitude
Rises 02:15:04 0° 318° (NW) 3,688 7.2 -16.5°
Reaches altitude 10° 02:17:39 10° 316° (NW) 2,745 6.5 -16.3°
Maximum altitude 02:24:01 65° 236° (SW) 1,082 4.0 -15.7°
Drops below altitude 10° 02:30:25 10° 156° (SSE) 2,747 6.1 -15.1°
Sets 02:33:00 0° 153° (SSE) 3,691 6.8 -14.9°
